Location: Jaite
(41.2884°N, 81.5737°W)
Time: 22:34:39
(UTC+00:00)

NOSS 3-2 (A) - Pass Details

Date: 18 January 2020
Orbit: 810 x 1398 km, 63.4° (Epoch: 10 February)

Event Time Altitude Azimuth Distance (km) Brightness Sun altitude
Exits shadow 11:05:33 12° 330° (NNW) 2,930 5.6 -19.1°
Maximum altitude 11:12:35 66° 52° (NE) 1,393 4.4 -17.8°
Drops below altitude 10° 11:20:58 10° 134° (SE) 3,430 7.3 -16.3°
Sets 11:23:59 0° 137° (SE) 4,430 7.9 -15.7°
